Weather History for PAGK - June, 2014

Change the Weather History Date:

Monday, June 2, 2014

  Actual Average Record
Temperature  
Mean Temperature 46 °F -  
Max Temperature 54 °F 60 °F 80 °F (1953)
Min Temperature 39 °F 39 °F 28 °F (1985)
Degree Days  
Heating Degree Days 18    
Moisture  
Dew Point 38 °F    
Average Humidity 79    
Maximum Humidity 93    
Minimum Humidity 59    
Precipitation  
Precipitation 0.20 in - - ()
Sea Level Pressure  
Sea Level Pressure 30.16 in    
Wind  
Wind Speed 5 mph (North)    
Max Wind Speed 16 mph    
Max Gust Speed 28 mph    
Visibility 9 miles    
Events Rain    
Averages and records for this station are not official NWS values.
T = Trace of Precipitation, MM = Missing Value Source: NWS Daily Summary

Daily Weather History Graph

Daily Weather History Graph

Search for Another Location

Airport or City:

Trip Planner

Search our weather history database for the weather conditions in past years. The results will help you decide how hot, cold, wet, or windy it might be!

Date:

Astronomy

Jun. 02, 2014 Rise Set
Actual Time 4:04 AM AKDT 11:16 PM AKDT
Civil Twilight 2:12 AM AKDT 1:07 AM AKDT
Nautical Twilight Sun does not rise Sun does not rise
Astronomical Twilight Sun does not rise Sun does not rise
Moon 9:47 AM AKDT (6/2) 1:12 AM AKDT (6/2)
Length of Visible Light 22h 55m
Length of Day
19h 11m
Waxing Crescent, 23% of the Moon is Illuminated
Jun 2
Waxing Crescent
Jun 5
First Quarter
Jun 12
Full
Jun 19
Last Quarter
Jun 27
New

Hourly Weather History & Observations

Time (AKDT) Temp. Windchill Dew Point Humidity Pressure Visibility Wind Dir Wind Speed Gust Speed Precip Events Conditions
12:53 AM 44.1 °F 40.8 °F 34.0 °F 68% 30.13 in 10.0 mi SSE 5.8 mph - 0.00 in   Overcast
1:53 AM 43.0 °F 38.2 °F 34.0 °F 71% 30.14 in 10.0 mi SSE 8.1 mph - 0.00 in Rain Light Rain
2:53 AM 42.1 °F 38.4 °F 34.0 °F 73% 30.14 in 10.0 mi SE 5.8 mph - 0.00 in   Overcast
3:53 AM 43.0 °F 39.5 °F 35.1 °F 74% 30.15 in 10.0 mi SE 5.8 mph - 0.00 in Rain Light Rain
4:53 AM 41.0 °F 39.0 °F 37.0 °F 86% 30.16 in 10.0 mi South 3.5 mph - 0.00 in Rain Light Rain
5:53 AM 41.0 °F - 37.9 °F 89% 30.17 in 10.0 mi Calm Calm - 0.02 in Rain Light Rain
6:38 AM 39.9 °F - 37.9 °F 93% 30.14 in 9.0 mi Calm Calm - 0.01 in Rain Light Rain
6:53 AM 41.0 °F - 37.9 °F 89% 30.18 in 8.0 mi Calm Calm - 0.01 in Rain Light Rain
7:53 AM 41.0 °F - 39.0 °F 93% 30.19 in 5.0 mi Calm Calm - 0.04 in Rain Light Rain
8:53 AM 41.0 °F 39.0 °F 39.0 °F 93% 30.19 in 10.0 mi North 3.5 mph - 0.01 in   Overcast
9:23 AM 42.1 °F 38.4 °F 37.9 °F 85% 30.15 in 10.0 mi NNE 5.8 mph - 0.00 in Rain Light Rain
10:21 AM 43.0 °F - 37.9 °F 82% 30.15 in 10.0 mi Calm Calm - 0.00 in Rain Light Rain
10:53 AM 43.0 °F 41.3 °F 39.0 °F 86% 30.19 in 10.0 mi North 3.5 mph - 0.01 in Rain Light Rain
11:53 AM 46.0 °F 43.9 °F 39.0 °F 76% 30.17 in 10.0 mi Variable 4.6 mph - 0.00 in   Overcast
12:49 PM 50.0 °F - 39.2 °F 66% 30.12 in 10.0 mi NW 4.6 mph - N/A   Mostly Cloudy
1:53 PM 51.1 °F - 37.0 °F 59% 30.15 in 10.0 mi Variable 3.5 mph - N/A   Mostly Cloudy
2:53 PM 50.0 °F - 37.0 °F 61% 30.15 in 10.0 mi North 16.1 mph 27.6 mph 0.00 in Rain Light Rain
3:12 PM 42.1 °F 34.2 °F 39.0 °F 89% 30.13 in 2.0 mi North 16.1 mph - 0.05 in Rain Rain
3:19 PM 42.1 °F 35.2 °F 39.0 °F 89% 30.13 in 2.5 mi North 12.7 mph 21.9 mph 0.07 in Rain Rain
3:27 PM 42.1 °F 34.9 °F 39.0 °F 89% 30.13 in 3.0 mi NNE 13.8 mph - 0.09 in Rain Rain
3:53 PM 43.0 °F 41.3 °F 37.9 °F 82% 30.17 in 9.0 mi WNW 3.5 mph - 0.17 in Rain Light Rain
4:53 PM 46.9 °F - 42.1 °F 83% 30.16 in 10.0 mi NW 4.6 mph - 0.00 in   Partly Cloudy
5:53 PM 50.0 °F - 43.0 °F 77% 30.14 in 10.0 mi WSW 4.6 mph - N/A   Mostly Cloudy
6:53 PM 48.9 °F - 39.9 °F 71% 30.15 in 10.0 mi ENE 10.4 mph - 0.00 in Rain Light Rain
7:53 PM 44.1 °F 40.1 °F 37.9 °F 79% 30.16 in 10.0 mi ESE 6.9 mph - 0.01 in   Overcast
8:53 PM 45.0 °F - 39.9 °F 82% 30.17 in 10.0 mi Calm Calm - N/A   Overcast
9:53 PM 45.0 °F 43.5 °F 39.0 °F 80% 30.16 in 10.0 mi WSW 3.5 mph - N/A   Partly Cloudy
10:53 PM 42.1 °F 38.4 °F 34.0 °F 73% 30.17 in 10.0 mi NW 5.8 mph - N/A   Clear
11:53 PM 41.0 °F 39.0 °F 33.1 °F 73% 30.18 in 10.0 mi Variable 3.5 mph - N/A   Clear